TimePST,TemperatureF,Dew PointF,Humidity,Sea Level PressureIn,VisibilityMPH,Wind Direction,Wind SpeedMPH,Gust SpeedMPH,PrecipitationIn,Events,Conditions,WindDirDegrees,DateUTC
12:53 AM,42.1,39.0,89,30.35,10.0,NW,3.5,-,N/A,,Overcast,320,2013-02-13 08:53:00
1:53 AM,41.0,36.0,82,30.34,10.0,NW,4.6,-,N/A,,Overcast,310,2013-02-13 09:53:00
2:10 AM,39.2,35.6,87,30.34,10.0,NW,4.6,-,N/A,,Scattered Clouds,310,2013-02-13 10:10:00
2:53 AM,39.0,34.0,82,30.34,10.0,NNW,3.5,-,N/A,,Clear,330,2013-02-13 10:53:00
3:53 AM,39.0,35.1,86,30.33,10.0,Calm,Calm,-,N/A,,Clear,0,2013-02-13 11:53:00
4:53 AM,37.0,35.1,93,30.33,10.0,WNW,3.5,-,N/A,,Clear,290,2013-02-13 12:53:00
5:53 AM,37.0,34.0,89,30.33,10.0,Calm,Calm,-,N/A,,Clear,0,2013-02-13 13:53:00
6:53 AM,36.0,33.1,89,30.33,10.0,Calm,Calm,-,N/A,,Clear,0,2013-02-13 14:53:00
7:53 AM,39.9,36.0,86,30.35,10.0,Calm,Calm,-,N/A,,Clear,0,2013-02-13 15:53:00
8:53 AM,44.1,37.9,79,30.35,10.0,Calm,Calm,-,N/A,,Clear,0,2013-02-13 16:53:00
9:53 AM,48.9,39.9,71,30.35,10.0,Calm,Calm,-,N/A,,Clear,0,2013-02-13 17:53:00
10:53 AM,54.0,42.1,64,30.34,10.0,ESE,3.5,-,N/A,,Clear,120,2013-02-13 18:53:00
11:53 AM,55.9,44.1,64,30.32,10.0,Calm,Calm,-,N/A,,Clear,0,2013-02-13 19:53:00
12:53 PM,59.0,45.0,60,30.29,10.0,SSW,4.6,-,N/A,,Clear,210,2013-02-13 20:53:00
1:53 PM,59.0,44.1,58,30.26,10.0,SW,6.9,-,N/A,,Clear,220,2013-02-13 21:53:00
2:53 PM,59.0,44.1,58,30.25,10.0,WSW,4.6,-,N/A,,Clear,250,2013-02-13 22:53:00
3:53 PM,59.0,43.0,55,30.24,10.0,South,5.8,-,N/A,,Clear,180,2013-02-13 23:53:00
4:53 PM,55.9,44.1,64,30.24,10.0,SSE,3.5,-,N/A,,Clear,160,2013-02-14 00:53:00
5:53 PM,51.1,46.0,83,30.24,10.0,SE,3.5,-,N/A,,Clear,130,2013-02-14 01:53:00
6:53 PM,46.9,45.0,93,30.24,9.0,SSE,3.5,-,N/A,,Clear,150,2013-02-14 02:53:00
7:53 PM,48.0,45.0,89,30.25,6.0,Calm,Calm,-,N/A,,Clear,0,2013-02-14 03:53:00
8:53 PM,45.0,43.0,93,30.25,6.0,Calm,Calm,-,N/A,,Clear,0,2013-02-14 04:53:00
9:53 PM,43.0,39.9,89,30.25,10.0,Calm,Calm,-,N/A,,Clear,0,2013-02-14 05:53:00
10:26 PM,42.8,39.2,87,30.25,2.0,Calm,Calm,-,N/A,,Partly Cloudy,0,2013-02-14 06:26:00
10:28 PM,42.8,41.0,93,30.25,1.0,Calm,Calm,-,N/A,,Mist,0,2013-02-14 06:28:00
10:32 PM,42.8,42.8,100,30.25,0.2,Calm,Calm,-,N/A,Fog,Fog,0,2013-02-14 06:32:00
10:53 PM,42.1,41.0,96,30.25,0.2,Calm,Calm,-,N/A,Fog,Fog,0,2013-02-14 06:53:00
11:23 PM,42.8,39.2,87,30.24,0.5,NW,4.6,-,N/A,Fog,Fog,320,2013-02-14 07:23:00
11:28 PM,41.0,39.2,93,30.24,1.5,NW,3.5,-,N/A,,Mostly Cloudy,310,2013-02-14 07:28:00
11:31 PM,41.0,39.2,93,30.24,2.5,NW,4.6,-,N/A,,Scattered Clouds,320,2013-02-14 07:31:00
11:38 PM,41.0,39.2,93,30.24,9.0,NNW,4.6,-,N/A,,Partly Cloudy,330,2013-02-14 07:38:00
11:53 PM,39.9,39.0,97,30.25,10.0,NW,4.6,-,N/A,,Clear,320,2013-02-14 07:53:00